529  
ASUS41 KGYX 220810  
RWRGYX  
WEATHER ROUNDUP FOR MAINE AND NEW HAMPSHIRE  
NATIONAL WEATHER SERVICE GRAY ME  
400 AM EDT FRI JUN 22 2018  
 
MEZ002-005-006-010-012-015-018-020-021-024-026-027-029-220900-  
MAINE  
 
CITY SKY/WX TMP DP RH WIND PRES REMARKS
 
PORTLAND FAIR 53 43 68 VRB6 29.98R  
SANFORD FAIR 44 43 96 CALM 29.99R  
BAR HARBOR FAIR 50 41 71 N5 29.99R  
WISCASSET FAIR 48 44 86 CALM 29.99R  
ROCKLAND FAIR 56 45 66 NE5 29.97R  
FRYEBURG FAIR 41 41 100 CALM 30.01R FOG  
LEWISTONAUBURN FAIR 47 43 86 N3 30.00R  
AUGUSTA FAIR 51 41 68 N5 29.99S  
WATERVILLE FAIR 50 40 68 N6 29.97R  
BANGOR FAIR 46 42 86 CALM 30.00R  
GREENVILLE N/A 47 44 90 N3 29.98S  
MILLINOCKET FAIR 43 39 86 CALM 30.01R  
HOULTON FAIR 36 35 96 CALM 29.97S  
PRESQUE ISLE FAIR 36 35 96 CALM 29.99S  
FRENCHVILLE FAIR 42 36 79 W3 29.97R  
CARIBOU FAIR 41 38 89 CALM 29.97S  

 
 
NHZ002-005-008-009-011-012-014-220900-  
NEW HAMPSHIRE  
 
CITY SKY/WX TMP DP RH WIND PRES REMARKS
 
PORTSMOUTH CLEAR 57 42 56 N9 29.96R  
ROCHESTER FAIR 48 43 82 N7 29.97R  
NASHUA FAIR 53 46 77 NW6 29.97S  
MANCHESTER FAIR 58 43 57 N7 29.96R  
CONCORD FAIR 46 43 89 E3 29.98S  
LACONIA FAIR 48 44 86 CALM 30.00R  
PLYMOUTH N/A 40 39 97 CALM 30.01R  
BERLIN FOG 35 35 100 E3 30.03R VSB 1/4  
WHITEFIELD FAIR 36 34 92 CALM 30.01R  
JAFFREY FAIR 48 45 89 CALM 29.99R  
KEENE FAIR 44 42 93 SW5 30.00R  
LEBANON FAIR 43 39 86 CALM 30.00R  
MT WASHINGTON CLEAR 41 5 22 W10 N/A  

 
 
VTZ005-007-008-220900-  
VERMONT  
 
CITY SKY/WX TMP DP RH WIND PRES REMARKS
 
ST JOHNSBURY N/A 43 42 97 MISG 30.01R  
MONTPELIER FAIR 40 39 97 CALM 30.05R  
BURLINGTON FAIR 48 43 82 E3 30.00R  

 
 
MAZ007-012-024-CTZ003-RIZ002-NYZ038-NYZ072-220900-  
SOUTHERN NEW ENGLAND AND NY  
 
CITY SKY/WX TMP DP RH WIND PRES REMARKS
 
BOSTON FAIR 61 50 67 N14 29.94S  
WORCESTER FAIR 57 42 57 N8 29.97R  
NANTUCKET CLOUDY 61 59 93 N3 29.92R  
PROVIDENCE FAIR 60 56 86 N5 29.94R  
HARTFORD FAIR 59 43 55 N8 29.96R  
ALBANY FAIR 50 42 74 NW3 29.99R  
NEW YORK CITY MOCLDY 69 64 84 E9 29.90R  

 
 
ANZ081-ANZ082-ANZ150-NHZ014-MEZ023>029-220900-  
COASTAL MARINE OBSERVATIONS  
 
STATION/POSITION TIME TEMP WIND PRES WAVE
 
AIR SEA DIR/SP/G HT/PER  
(UTC) (F) (DEG/KT/KT) (MB) (FT/S)  
MOUNT DESERT ROC 0800 53 20/ 9/ 10 1015.1R  
MATINICUS ROCK 0800 54 50/ 13/ 14 1014.2R  
ISLE OF SHOALS 0800 59 20/ 18/ 20 1013.9R  
JEFFREYS LEDGE 0736 57 N/A 1/ 7  

 
   
............KEY...........
 
 
WCI - WIND CHILL  
TC - TEMPERATURE IN CELSIUS  
VSB - VISIBILITY
IN MILES  
HX - HEAT INDEX  
FAIR- INDICATES FEW OR NO CLOUDS BELOW 12,000 FT, WITH NO  
SIGNIFICANT WEATHER AND/OR S TO VISIBILITY.  
 
 
 
CLICK HERE TO GO TO PREVIOUS BULLETINS.

The Nexlab ME Page
The Nexlab NH Page Main Text Page